User: anonymous   Login
Location: Unspecified
(0.0000°N, 0.0000°E)
Time: 17:23:44
(UTC+00:00)
Language:

OPTUS D3 - Orbit

View from above orbital plane
View from above orbital plane
View from above satellite
View from above satellite

Ground track
Ground track

The orbit data is extracted from the following two-line orbital elements,

1 35756U 09044B   16268.83650034 -.00000179  00000-0  00000+0 0  9992
2 35756   0.0207  31.9156 0002257 162.4491 266.8686  1.00270048 26018
Epoch (UTC): 24 September 2016 20:04:33
Eccentricity: 0.0002257
inclination: 0.0207°
perigee height: 35777 km
apogee height: 35796 km
right ascension of ascending node: 31.9156°
argument of perigee: 162.4491°
revolutions per day: 1.00270048
mean anomaly at epoch: 266.8686°
orbit number at epoch: 2601

The dashed part of the orbit path shows where the satellite is in the earth's shadow,  

DLR